TimeCST,TemperatureF,Dew PointF,Humidity,Sea Level PressureIn,VisibilityMPH,Wind Direction,Wind SpeedMPH,Gust SpeedMPH,PrecipitationIn,Events,Conditions,WindDirDegrees,DateUTC
12:15 AM,60.8,41.0,48,29.91,10.0,South,16.1,23.0,N/A,,Clear,180,2012-11-08 06:15:00
12:35 AM,60.8,41.0,48,29.91,10.0,South,17.3,24.2,N/A,,Clear,180,2012-11-08 06:35:00
12:55 AM,60.8,41.0,48,29.91,10.0,South,11.5,-,N/A,,Clear,190,2012-11-08 06:55:00
1:15 AM,59.0,41.0,51,29.91,10.0,SSW,10.4,-,N/A,,Clear,210,2012-11-08 07:15:00
1:35 AM,59.0,41.0,51,29.91,10.0,WSW,8.1,-,N/A,,Clear,240,2012-11-08 07:35:00
2:15 AM,57.2,41.0,55,29.90,10.0,West,4.6,-,N/A,,Clear,260,2012-11-08 08:15:00
2:35 AM,59.0,41.0,51,29.89,10.0,SW,9.2,16.1,N/A,,Clear,230,2012-11-08 08:35:00
2:55 AM,59.0,39.2,48,29.88,10.0,SSW,17.3,-,N/A,,Clear,210,2012-11-08 08:55:00
3:15 AM,57.2,39.2,51,29.88,10.0,SSW,16.1,-,N/A,,Clear,210,2012-11-08 09:15:00
3:35 AM,57.2,39.2,51,29.87,10.0,SSW,18.4,-,N/A,,Clear,200,2012-11-08 09:35:00
3:55 AM,57.2,37.4,48,29.87,10.0,SSW,19.6,28.8,N/A,,Clear,200,2012-11-08 09:55:00
4:15 AM,57.2,37.4,48,29.86,10.0,SSW,17.3,23.0,N/A,,Clear,210,2012-11-08 10:15:00
4:35 AM,55.4,35.6,47,29.87,10.0,SSW,17.3,-,N/A,,Clear,210,2012-11-08 10:35:00
5:15 AM,53.6,33.8,47,29.87,10.0,SW,16.1,-,N/A,,Clear,220,2012-11-08 11:15:00
5:35 AM,53.6,33.8,47,29.86,10.0,SSW,17.3,-,N/A,,Clear,210,2012-11-08 11:35:00
5:55 AM,53.6,32.0,44,29.86,10.0,SW,17.3,21.9,N/A,,Clear,220,2012-11-08 11:55:00
6:15 AM,53.6,32.0,44,29.87,10.0,SW,16.1,-,N/A,,Clear,220,2012-11-08 12:15:00
6:35 AM,51.8,32.0,47,29.87,10.0,SW,15.0,-,N/A,,Clear,220,2012-11-08 12:35:00
6:55 AM,51.8,32.0,47,29.87,10.0,SW,13.8,-,N/A,,Clear,220,2012-11-08 12:55:00
7:15 AM,50.0,32.0,50,29.87,10.0,SW,11.5,-,N/A,,Clear,220,2012-11-08 13:15:00
7:35 AM,50.0,32.0,50,29.88,10.0,SW,12.7,-,N/A,,Clear,220,2012-11-08 13:35:00
7:55 AM,51.8,30.2,44,29.88,10.0,SW,9.2,-,N/A,,Clear,230,2012-11-08 13:55:00
8:15 AM,53.6,30.2,41,29.89,10.0,SW,9.2,-,N/A,,Clear,230,2012-11-08 14:15:00
8:35 AM,55.4,30.2,38,29.90,10.0,WSW,5.8,-,N/A,,Clear,240,2012-11-08 14:35:00
8:55 AM,55.4,30.2,38,29.90,10.0,WSW,9.2,-,N/A,,Clear,240,2012-11-08 14:55:00
9:15 AM,59.0,28.4,31,29.91,10.0,WSW,8.1,-,N/A,,Clear,250,2012-11-08 15:15:00
9:35 AM,62.6,26.6,26,29.90,10.0,WSW,17.3,21.9,N/A,,Clear,240,2012-11-08 15:35:00
9:55 AM,64.4,26.6,24,29.90,10.0,SW,15.0,-,N/A,,Clear,230,2012-11-08 15:55:00
10:15 AM,66.2,24.8,21,29.90,10.0,WSW,20.7,26.5,N/A,,Clear,240,2012-11-08 16:15:00
10:35 AM,68.0,24.8,20,29.90,10.0,WSW,16.1,-,N/A,,Clear,240,2012-11-08 16:35:00
10:55 AM,69.8,23.0,17,29.90,10.0,WSW,13.8,21.9,N/A,,Clear,240,2012-11-08 16:55:00
11:15 AM,71.6,23.0,16,29.90,10.0,SW,11.5,-,N/A,,Clear,230,2012-11-08 17:15:00
11:35 AM,75.2,23.0,14,29.89,10.0,WSW,9.2,17.3,N/A,,Clear,250,2012-11-08 17:35:00
11:55 AM,77.0,24.8,14,29.87,10.0,West,8.1,-,N/A,,Clear,260,2012-11-08 17:55:00
12:15 PM,80.6,24.8,13,29.87,10.0,WNW,9.2,-,N/A,,Clear,290,2012-11-08 18:15:00
12:35 PM,80.6,24.8,13,29.86,10.0,WSW,11.5,-,N/A,,Clear,250,2012-11-08 18:35:00
1:15 PM,80.6,23.0,12,29.84,10.0,WSW,8.1,-,N/A,,Clear,240,2012-11-08 19:15:00
1:35 PM,82.4,23.0,11,29.82,10.0,SSW,8.1,-,N/A,,Clear,200,2012-11-08 19:35:00
1:55 PM,82.4,23.0,11,29.82,10.0,SSW,10.4,-,N/A,,Clear,210,2012-11-08 19:55:00
2:15 PM,82.4,23.0,11,29.82,10.0,SW,9.2,-,N/A,,Clear,220,2012-11-08 20:15:00
2:35 PM,82.4,23.0,11,29.82,10.0,SSW,11.5,-,N/A,,Clear,210,2012-11-08 20:35:00
2:55 PM,80.6,23.0,12,29.81,10.0,SSW,10.4,-,N/A,,Clear,210,2012-11-08 20:55:00
3:15 PM,82.4,23.0,11,29.81,10.0,SSW,12.7,-,N/A,,Clear,210,2012-11-08 21:15:00
3:35 PM,80.6,21.2,11,29.81,10.0,SW,9.2,-,N/A,,Clear,220,2012-11-08 21:35:00
3:55 PM,80.6,21.2,11,29.81,10.0,SW,11.5,-,N/A,,Clear,220,2012-11-08 21:55:00
4:15 PM,82.4,21.2,10,29.81,10.0,SW,10.4,-,N/A,,Clear,230,2012-11-08 22:15:00
4:35 PM,82.4,19.4,10,29.81,10.0,WSW,13.8,18.4,N/A,,Clear,240,2012-11-08 22:35:00
4:55 PM,82.4,19.4,10,29.81,10.0,SW,13.8,18.4,N/A,,Clear,230,2012-11-08 22:55:00
5:15 PM,78.8,19.4,11,29.81,10.0,SW,10.4,16.1,N/A,,Clear,230,2012-11-08 23:15:00
5:35 PM,75.2,19.4,12,29.81,10.0,SW,8.1,-,N/A,,Clear,230,2012-11-08 23:35:00
5:55 PM,69.8,19.4,15,29.81,10.0,SW,8.1,-,N/A,,Clear,220,2012-11-08 23:55:00
6:15 PM,64.4,19.4,18,29.81,10.0,SSW,9.2,-,N/A,,Clear,210,2012-11-09 00:15:00
6:35 PM,64.4,19.4,18,29.82,10.0,SSW,9.2,-,N/A,,Clear,210,2012-11-09 00:35:00
6:55 PM,62.6,21.2,20,29.82,10.0,SSW,10.4,-,N/A,,Clear,200,2012-11-09 00:55:00
7:15 PM,62.6,21.2,20,29.82,10.0,SSW,10.4,-,N/A,,Clear,200,2012-11-09 01:15:00
7:35 PM,60.8,21.2,22,29.83,10.0,SW,5.8,-,N/A,,Clear,220,2012-11-09 01:35:00
7:55 PM,60.8,21.2,22,29.83,10.0,SSW,6.9,-,N/A,,Clear,210,2012-11-09 01:55:00
8:15 PM,60.8,21.2,22,29.84,10.0,SW,6.9,-,N/A,,Clear,220,2012-11-09 02:15:00
8:35 PM,60.8,21.2,22,29.84,10.0,North,3.5,-,N/A,,Clear,350,2012-11-09 02:35:00
9:15 PM,57.2,21.2,25,29.84,10.0,Calm,Calm,-,N/A,,Clear,0,2012-11-09 03:15:00
9:35 PM,59.0,24.8,27,29.84,10.0,Calm,Calm,-,N/A,,Clear,0,2012-11-09 03:35:00
10:15 PM,57.2,26.6,31,29.84,10.0,Calm,Calm,-,N/A,,Clear,0,2012-11-09 04:15:00
10:35 PM,57.2,28.4,33,29.84,10.0,East,3.5,-,N/A,,Clear,80,2012-11-09 04:35:00
11:15 PM,59.0,26.6,29,29.83,10.0,SE,3.5,-,N/A,,Clear,140,2012-11-09 05:15:00
11:35 PM,53.6,26.6,35,29.83,10.0,SW,4.6,-,N/A,,Clear,230,2012-11-09 05:35:00